GW2464 Weather Reports


Display with metric or nautical units.
time (UTC)temp
F
wind
direction
speed
MPH
gust
MPH
rain 1hr
in
rain 24hr
in
rain mn
in
humidity
%
barometer
mb
20260905175146 69 14 1.0 1.0 0.00 0.00 0.00 79 1014.1
20260905174641 70 13 1.0 2.0 0.00 0.00 0.00 76 1013.9
20260905174137 70 33 0.0 1.0 0.00 0.00 0.00 73 1013.8
20260905173632 71 352 1.0 1.0 0.00 0.00 0.00 73 1013.9
20260905173128 71 357 1.0 1.0 0.00 0.00 0.00 75 1013.9
20260905172627 71 67 5.0 6.0 0.00 0.00 0.00 70 1014.0
20260905172122 70 313 1.0 1.0 0.00 0.00 0.00 73 1013.9
20260905171618 70 243 2.0 2.0 0.00 0.00 0.00 71 1014.1
20260905171113 68 262 1.0 2.0 0.00 0.00 0.00 74 1014.0
20260905170605 68 237 2.0 2.0 0.00 0.00 0.00 77 1014.4
20260905170059 0 0.0 0.0 0.00 0.00 0.00 1014.1
20260905165554 70 72 1.0 1.0 0.00 0.00 0.00 75 1014.1
20260905165049 70 72 1.0 1.0 0.00 0.00 0.00 75 1014.0
20260905164544 68 15 3.0 6.0 0.00 0.00 0.00 72 1014.5
20260905164038 68 15 3.0 6.0 0.00 0.00 0.00 72 1014.2
20260905163534 68 262 0.0 0.0 0.00 0.00 0.00 76 1014.3
20260905163031 71 47 0.0 0.0 0.00 0.00 0.00 75 1014.2
20260905162526 71 47 0.0 0.0 0.00 0.00 0.00 75 1014.4
20260905162015 71 47 0.0 0.0 0.00 0.00 0.00 75 1014.2
20260905161515 0 0.0 0.0 0.00 0.00 0.00 1014.5
20260905161012 0 0.0 0.0 0.00 0.00 0.00 1014.4
20260905160506 0 0.0 0.0 0.00 0.00 0.00 1014.4
20260905160005 0 0.0 0.0 0.00 0.00 0.00 1014.5
20260905155500 67 232 0.0 0.0 0.00 0.00 0.00 81 1014.4
20260905154958 67 232 0.0 0.0 0.00 0.00 0.00 81 1014.2
20260905154454 67 232 0.0 0.0 0.00 0.00 0.00 81 1014.4
20260905153949 0 0.0 0.0 0.00 0.00 0.00 1014.7
20260905153445 0 0.0 0.0 0.00 0.00 0.00 1014.5
20260905152940 0 0.0 0.0 0.00 0.00 0.00 1014.7
20260905152439 0 0.0 0.0 0.00 0.00 0.00 1014.5
20260905151939 67 44 0.0 0.0 0.00 0.00 0.00 81 1014.6
20260905151435 67 44 0.0 0.0 0.00 0.00 0.00 81 1014.4
20260905150930 66 218 0.0 0.0 0.00 0.00 0.00 81 1014.5
20260905150430 0 0.0 0.0 0.00 0.00 0.00 1014.7
20260905145926 65 336 0.0 0.0 0.00 0.00 0.00 87 1014.5
20260905145421 65 336 0.0 0.0 0.00 0.00 0.00 87 1014.3
20260905144915 65 336 0.0 0.0 0.00 0.00 0.00 87 1014.5
20260905144411 66 106 0.0 0.0 0.00 0.00 0.00 86 1014.6
20260905143909 66 106 0.0 0.0 0.00 0.00 0.00 86 1014.6
20260905143403 65 354 0.0 0.0 0.00 0.00 0.00 87 1014.6
20260905142857 65 240 0.0 0.0 0.00 0.00 0.00 87 1014.3
20260905142355 66 251 0.0 0.0 0.00 0.00 0.00 86 1014.5
20260905141852 66 222 0.0 0.0 0.00 0.00 0.00 85 1014.4
20260905141347 66 222 0.0 0.0 0.00 0.00 0.00 85 1014.3
20260905140843 67 190 0.0 0.0 0.00 0.00 0.00 85 1014.3
20260905140343 67 31 0.0 0.0 0.00 0.00 0.00 84 1014.3
20260905135841 0 0.0 0.0 0.00 0.00 0.00 1014.4
20260905135338 64 115 0.0 0.0 0.00 0.00 0.00 91 1014.3
20260905134834 64 115 0.0 0.0 0.00 0.00 0.00 91 1014.5
20260905134332 64 111 0.0 0.0 0.00 0.00 0.00 90 1014.4
20260905133827 64 111 0.0 0.0 0.00 0.00 0.00 90 1014.5
20260905133322 64 111 0.0 0.0 0.00 0.00 0.00 90 1014.5
20260905132821 62 234 0.0 0.0 0.00 0.00 0.00 90 1014.2
20260905132317 62 318 3.0 6.0 0.00 0.00 0.00 92 1014.2
20260905131811 62 318 3.0 6.0 0.00 0.00 0.00 92 1014.3
20260905131307 62 342 2.0 2.0 0.00 0.00 0.00 92 1014.3
20260905130802 62 168 1.0 2.0 0.00 0.00 0.00 93 1014.3
20260905130300 62 72 3.0 5.0 0.00 0.00 0.00 94 1014.2
20260905125756 62 345 0.0 0.0 0.00 0.00 0.00 94 1014.7
20260905125251 61 280 2.0 2.0 0.00 0.00 0.00 95 1014.5
20260905124747 61 98 1.0 2.0 0.00 0.00 0.00 96 1014.6
20260905124243 62 103 3.0 5.0 0.00 0.00 0.00 96 1014.6
20260905123738 62 2 1.0 1.0 0.00 0.00 0.00 96 1014.8
20260905123235 61 45 1.0 1.0 0.00 0.00 0.00 97 1014.6
20260905122734 61 65 0.0 1.0 0.00 0.00 0.00 97 1014.8
20260905122229 61 35 0.0 0.0 0.00 0.00 0.00 98 1014.7
20260905121724 61 71 2.0 2.0 0.00 0.00 0.00 98 1015.0
20260905121220 61 13 0.0 0.0 0.00 0.00 0.00 98 1015.0
20260905120718 61 24 0.0 0.0 0.00 0.00 0.00 97 1014.6
20260905120213 61 347 0.0 1.0 0.00 0.00 0.00 98 1014.7
20260905115708 61 291 2.0 2.0 0.00 0.00 0.00 98 1014.4
20260905115203 60 350 0.0 0.0 0.00 0.00 0.00 99 1014.4
20260905114702 60 357 0.0 1.0 0.00 0.00 0.00 99 1014.1
20260905114200 59 349 0.0 0.0 0.00 0.00 0.00 99 1014.2
20260905113655 59 342 1.0 1.0 0.00 0.00 0.00 99 1014.3
20260905113151 58 347 0.0 0.0 0.00 0.00 0.00 99 1014.0
20260905112651 58 349 1.0 1.0 0.00 0.00 0.00 99 1014.1
20260905112147 58 356 1.0 1.0 0.00 0.00 0.00 99 1014.3
20260905111646 58 341 1.0 1.0 0.00 0.00 0.00 99 1014.1
20260905111146 57 354 1.0 1.0 0.00 0.00 0.00 99 1013.9
20260905110645 57 339 1.0 1.0 0.00 0.00 0.00 99 1014.1
20260905110140 57 349 0.0 0.0 0.00 0.00 0.00 99 1013.8
20260905105635 57 349 0.0 0.0 0.00 0.00 0.00 99 1013.6
20260905105134 57 346 0.0 0.0 0.00 0.00 0.00 99 1013.6
20260905104629 57 346 0.0 0.0 0.00 0.00 0.00 99 1013.4
20260905104125 57 349 0.0 0.0 0.00 0.00 0.00 99 1013.3
20260905103620 57 351 0.0 0.0 0.00 0.00 0.00 99 1013.3
20260905103116 57 349 0.0 0.0 0.00 0.00 0.00 99 1013.3
20260905102611 57 348 0.0 0.0 0.00 0.00 0.00 99 1013.3
20260905102108 57 349 0.0 0.0 0.00 0.00 0.00 99 1013.0
20260905101606 58 348 0.0 0.0 0.00 0.00 0.00 99 1013.1
20260905101104 58 344 0.0 1.0 0.00 0.00 0.00 99 1013.2
20260905100601 58 348 0.0 0.0 0.00 0.00 0.00 99 1013.1
20260905100101 58 350 0.0 0.0 0.00 0.00 0.00 99 1013.0
20260905095555 58 348 0.0 1.0 0.00 0.00 0.00 99 1012.9
20260905095050 58 349 0.0 0.0 0.00 0.00 0.00 99 1012.8
20260905094545 58 349 0.0 0.0 0.00 0.00 0.00 99 1013.1
20260905094044 58 349 0.0 0.0 0.00 0.00 0.00 99 1012.9
20260905093539 59 348 1.0 2.0 0.00 0.00 0.00 99 1013.0
20260905093036 59 349 0.0 0.0 0.00 0.00 0.00 99 1013.0
20260905092536 59 349 0.0 0.0 0.00 0.00 0.00 99 1013.0
20260905092032 59 351 0.0 0.0 0.00 0.00 0.00 99 1013.2
20260905091531 59 345 1.0 1.0 0.00 0.00 0.00 99 1013.2
20260905091030 59 348 0.0 0.0 0.00 0.00 0.00 99 1013.3
20260905090525 59 345 0.0 0.0 0.00 0.00 0.00 99 1013.3
20260905090020 60 349 0.0 0.0 0.00 0.00 0.00 99 1013.2
20260905085518 59 335 1.0 1.0 0.00 0.00 0.00 99 1013.2
20260905085014 59 348 0.0 0.0 0.00 0.00 0.00 99 1013.0
20260905084508 59 349 2.0 2.0 0.00 0.00 0.00 99 1013.2
20260905084003 59 351 0.0 0.0 0.00 0.00 0.00 99 1013.4
20260905083458 59 348 1.0 1.0 0.00 0.00 0.00 99 1013.1
20260905082954 59 336 1.0 1.0 0.00 0.00 0.00 99 1013.2
20260905082450 59 351 0.0 0.0 0.00 0.00 0.00 99 1013.2
20260905081945 59 342 1.0 1.0 0.00 0.00 0.00 99 1013.2
20260905081440 59 352 0.0 1.0 0.00 0.00 0.00 99 1013.4
20260905080939 59 328 1.0 1.0 0.00 0.00 0.00 99 1013.3
20260905080434 59 348 0.0 1.0 0.00 0.00 0.00 99 1013.5
20260905075933 59 343 1.0 1.0 0.00 0.00 0.00 99 1013.3
20260905075428 59 354 1.0 2.0 0.00 0.00 0.00 99 1013.5
20260905074926 59 354 1.0 1.0 0.00 0.00 0.00 99 1013.4
20260905074422 58 349 0.0 0.0 0.00 0.00 0.00 99 1013.5
20260905073918 58 349 1.0 1.0 0.00 0.00 0.00 99 1013.4
20260905073413 57 348 0.0 0.0 0.00 0.00 0.00 99 1013.4
20260905072908 57 347 0.0 0.0 0.00 0.00 0.00 99 1013.3
20260905072403 57 350 0.0 0.0 0.00 0.00 0.00 99 1013.4
20260905071858 57 349 0.0 0.0 0.00 0.00 0.00 99 1013.7
20260905071355 57 349 0.0 0.0 0.00 0.00 0.00 99 1013.5
20260905070849 58 348 0.0 0.0 0.00 0.00 0.00 99 1013.5
20260905070346 58 351 0.0 1.0 0.00 0.00 0.00 99 1013.4
20260905065845 58 350 0.0 0.0 0.00 0.00 0.00 99 1013.5
20260905065343 58 349 0.0 0.0 0.00 0.00 0.00 99 1013.8
20260905064838 58 349 0.0 0.0 0.00 0.00 0.00 99 1013.5
20260905064334 58 351 0.0 0.0 0.00 0.00 0.00 99 1014.0
20260905063832 58 348 0.0 0.0 0.00 0.00 0.00 99 1013.9
20260905063329 58 347 0.0 0.0 0.00 0.00 0.00 99 1013.7
20260905062824 59 349 0.0 0.0 0.00 0.00 0.00 99 1013.8
20260905062318 59 351 0.0 0.0 0.00 0.00 0.00 99 1014.0
20260905061813 59 348 0.0 0.0 0.00 0.00 0.00 99 1013.7
20260905061308 59 347 0.0 0.0 0.00 0.00 0.00 99 1014.0
20260905060803 60 348 0.0 0.0 0.00 0.00 0.00 99 1014.1
20260905060259 60 348 0.0 0.0 0.00 0.00 0.00 99 1014.0
20260905055758 60 349 0.0 0.0 0.00 0.00 0.00 98 1014.1
20260905055253 61 351 0.0 0.0 0.00 0.00 0.00 98 1013.8
20260905054747 61 350 0.0 0.0 0.00 0.00 0.00 97 1013.9
20260905054244 62 347 0.0 0.0 0.00 0.00 0.00 96 1014.0
20260905053743 62 349 0.0 0.0 0.00 0.00 0.00 95 1014.1
20260905053239 62 350 0.0 0.0 0.00 0.00 0.00 93 1014.1
20260905052738 63 348 1.0 1.0 0.00 0.00 0.00 93 1014.4
20260905052233 63 357 1.0 1.0 0.00 0.00 0.00 92 1014.1
20260905051733 63 350 0.0 0.0 0.00 0.00 0.00 92 1014.4
20260905051229 63 348 1.0 1.0 0.00 0.00 0.00 92 1014.4
20260905050725 63 349 0.0 0.0 0.00 0.00 0.00 92 1014.3
20260905050222 63 349 0.0 0.0 0.00 0.00 0.00 91 1014.5
20260905045722 63 350 0.0 0.0 0.00 0.00 0.00 92 1014.4
20260905045217 64 346 0.0 0.0 0.00 0.00 0.00 93 1014.4
20260905044712 63 345 0.0 0.0 0.00 0.00 0.00 93 1014.5
20260905044207 63 348 0.0 0.0 0.00 0.00 0.00 93 1014.6
20260905043706 63 345 1.0 1.0 0.00 0.00 0.00 93 1014.4
20260905043200 63 348 0.0 0.0 0.00 0.00 0.00 94 1014.5
20260905042655 63 348 0.0 0.0 0.00 0.00 0.00 96 1014.5
20260905042155 63 353 1.0 1.0 0.00 0.00 0.00 95 1014.5
20260905041650 63 348 0.0 0.0 0.00 0.00 0.00 96 1014.5
20260905041146 63 351 0.0 0.0 0.00 0.00 0.00 95 1014.6
20260905040641 63 348 1.0 1.0 0.00 0.00 0.00 94 1014.7
20260905040139 63 348 0.0 0.0 0.00 0.00 0.00 95 1014.6
20260905035634 64 348 0.0 0.0 0.00 0.53 0.53 96 1014.4
20260905035131 64 349 0.0 0.0 0.00 0.53 0.53 94 1014.5
20260905034627 64 356 2.0 2.0 0.00 0.53 0.53 93 1014.5
20260905034126 64 351 0.0 1.0 0.00 0.53 0.53 93 1014.4
20260905033625 64 343 1.0 2.0 0.00 0.53 0.53 93 1014.4
20260905033121 64 350 0.0 0.0 0.00 0.53 0.53 92 1014.2
20260905032616 64 351 1.0 1.0 0.00 0.53 0.53 92 1014.4
20260905032115 63 347 0.0 0.0 0.00 0.53 0.53 95 1014.4
20260905031612 63 348 0.0 0.0 0.00 0.53 0.53 97 1014.3
20260905031112 63 355 1.0 1.0 0.00 0.53 0.53 98 1014.4
20260905030607 63 348 0.0 0.0 0.00 0.53 0.53 99 1014.2
20260905025557 63 349 0.0 1.0 0.00 0.53 0.53 99 1014.4
20260905025053 63 348 0.0 0.0 0.00 0.53 0.53 99 1014.6
20260905024548 64 348 0.0 0.0 0.00 0.53 0.53 99 1014.5
20260905024044 64 347 0.0 0.0 0.00 0.53 0.53 99 1014.3
20260905023538 64 347 0.0 0.0 0.00 0.53 0.53 98 1014.3
20260905023033 64 349 0.0 0.0 0.00 0.53 0.53 97 1014.4
20260905022532 64 344 1.0 1.0 0.00 0.53 0.53 96 1014.4
20260905022028 65 345 1.0 1.0 0.00 0.53 0.53 95 1014.5
20260905021527 65 351 0.0 0.0 0.00 0.53 0.53 96 1014.5
20260905021023 65 348 0.0 0.0 0.00 0.53 0.53 94 1014.4
20260905020522 65 348 0.0 0.0 0.00 0.53 0.53 94 1014.5
20260905020018 64 345 0.0 0.0 0.00 0.53 0.53 95 1014.4
20260905015515 63 347 0.0 0.0 0.00 0.53 0.53 98 1014.6
20260905015016 63 349 0.0 0.0 0.00 0.53 0.53 99 1014.5
20260905014510 63 350 0.0 0.0 0.00 0.53 0.53 99 1014.6
20260905014006 63 348 0.0 0.0 0.00 0.53 0.53 99 1014.4
20260905013502 64 348 0.0 0.0 0.00 0.53 0.53 99 1014.7
20260905012957 63 346 0.0 0.0 0.00 0.53 0.53 99 1014.7
20260905012452 63 350 0.0 0.0 0.00 0.53 0.53 99 1014.7
20260905011949 63 352 0.0 0.0 0.00 0.53 0.53 99 1014.8
20260905011444 63 347 0.0 0.0 0.00 0.53 0.53 99 1015.1
20260905010940 63 347 0.0 0.0 0.00 0.53 0.53 99 1014.6
20260905010435 63 347 0.0 0.0 0.00 0.53 0.53 99 1014.5
20260905005930 63 348 0.0 0.0 0.00 0.53 0.53 99 1014.7
20260905005426 63 346 0.0 0.0 0.00 0.53 0.53 99 1014.8
20260905004926 63 348 0.0 0.0 0.00 0.53 0.53 99 1014.7
20260905004421 63 348 0.0 0.0 0.00 0.53 0.53 99 1014.7
20260905003917 63 348 0.0 0.0 0.00 0.53 0.53 99 1014.6
20260905003412 63 348 0.0 0.0 0.00 0.53 0.53 99 1014.4
20260905002907 63 348 0.0 0.0 0.00 0.53 0.53 99 1014.3
20260905002402 63 348 0.0 0.0 0.00 0.53 0.53 99 1014.5
20260905001857 62 348 0.0 0.0 0.00 0.53 0.53 99 1014.6
20260905001357 63 348 0.0 0.0 0.00 0.53 0.53 99 1014.5
20260905000852 63 347 0.0 0.0 0.00 0.53 0.53 99 1014.3
20260905000348 63 345 0.0 0.0 0.00 0.53 0.53 99 1014.4
20260904235843 63 7 0.0 0.0 0.00 0.53 0.53 99 1014.3
20260904235338 63 25 0.0 0.0 0.00 0.53 0.53 99 1014.2
20260904234832 63 38 0.0 0.0 0.00 0.53 0.53 99 1014.4
20260904234327 64 36 0.0 0.0 0.00 0.53 0.53 99 1014.1
20260904233823 64 35 0.0 0.0 0.00 0.53 0.53 98 1014.3
20260904233318 64 35 0.0 0.0 0.00 0.53 0.53 98 1014.0
20260904232815 65 35 0.0 0.0 0.00 0.53 0.53 97 1014.0
20260904232311 66 35 0.0 0.0 0.00 0.53 0.53 97 1014.1
20260904231807 66 36 0.0 0.0 0.00 0.53 0.53 95 1014.1
20260904231301 66 36 0.0 0.0 0.00 0.53 0.53 94 1014.1
20260904230757 67 36 0.0 0.0 0.00 0.53 0.53 93 1014.2
20260904230255 68 36 0.0 0.0 0.00 0.53 0.53 92 1014.3
20260904225750 68 37 0.0 0.0 0.00 0.53 0.53 90 1014.4
20260904225244 68 35 0.0 0.0 0.00 0.53 0.53 88 1014.1
20260904224743 69 95 0.0 0.0 0.00 0.53 0.53 86 1014.3
20260904224239 69 14 0.0 0.0 0.00 0.53 0.53 87 1014.4
20260904223738 70 14 0.0 0.0 0.00 0.53 0.53 87 1014.3
20260904223233 70 333 2.0 2.0 0.00 0.53 0.53 83 1014.4
20260904222729 71 14 0.0 0.0 0.00 0.53 0.53 84 1014.3
20260904222224 71 26 0.0 0.0 0.00 0.53 0.53 82 1014.2
20260904221723 72 12 1.0 1.0 0.00 0.53 0.53 81 1014.2
20260904221218 72 4 0.0 0.0 0.00 0.53 0.53 76 1014.2
20260904220713 72 12 1.0 2.0 0.00 0.53 0.53 75 1014.3
20260904220208 72 293 1.0 2.0 0.00 0.53 0.53 76 1014.1
20260904215707 72 323 2.0 2.0 0.00 0.53 0.53 76 1014.1
20260904215204 72 62 1.0 1.0 0.00 0.53 0.53 77 1014.0
20260904214658 72 19 1.0 1.0 0.00 0.53 0.53 77 1014.2
20260904214154 72 235 2.0 2.0 0.00 0.53 0.53 76 1014.1
20260904213652 72 306 1.0 1.0 0.00 0.53 0.53 76 1014.0
20260904213149 72 196 2.0 2.0 0.00 0.53 0.53 75 1013.9
20260904212643 72 54 0.0 1.0 0.00 0.53 0.53 78 1014.2
20260904212144 72 320 1.0 2.0 0.00 0.53 0.53 77 1014.3
20260904211638 73 7 0.0 1.0 0.00 0.53 0.53 75 1014.1
20260904211134 74 338 1.0 1.0 0.00 0.53 0.53 76 1014.2
20260904210633 74 217 3.0 3.0 0.00 0.53 0.53 73 1014.1
20260904210129 74 6 1.0 2.0 0.00 0.53 0.53 72 1014.2
20260904205625 74 120 2.0 3.0 0.00 0.53 0.53 72 1014.3
20260904205121 73 272 2.0 2.0 0.00 0.53 0.53 73 1014.1
20260904204617 73 3 0.0 0.0 0.00 0.53 0.53 73 1014.2
20260904204113 74 359 0.0 0.0 0.00 0.53 0.53 74 1014.3
20260904203608 74 225 3.0 3.0 0.00 0.53 0.53 73 1014.4
20260904203105 73 253 2.0 2.0 0.00 0.53 0.53 73 1014.6
20260904202601 73 17 0.0 1.0 0.00 0.53 0.53 74 1014.3
20260904202057 73 283 1.0 2.0 0.00 0.53 0.53 72 1014.5
20260904201556 74 221 2.0 2.0 0.00 0.53 0.53 70 1014.6
20260904201051 75 357 3.0 3.0 0.00 0.53 0.53 70 1014.5
20260904200550 75 348 1.0 1.0 0.00 0.53 0.53 73 1014.5
20260904200045 75 52 2.0 3.0 0.00 0.53 0.53 74 1014.5
20260904195544 74 9 0.0 0.0 0.00 0.53 0.53 74 1014.6
20260904195038 75 330 1.0 1.0 0.00 0.53 0.53 74 1014.6
20260904194533 75 25 1.0 1.0 0.00 0.53 0.53 73 1015.0
20260904194028 74 307 2.0 2.0 0.00 0.53 0.53 72 1014.8
20260904193522 74 263 3.0 5.0 0.00 0.53 0.53 75 1014.8
20260904193019 74 356 2.0 3.0 0.00 0.53 0.53 74 1014.8
20260904192518 75 304 3.0 3.0 0.00 0.53 0.53 75 1014.7
20260904192014 76 270 2.0 2.0 0.00 0.53 0.53 72 1014.7
20260904191510 76 60 1.0 1.0 0.00 0.53 0.53 72 1014.7
20260904191006 75 185 2.0 2.0 0.00 0.53 0.53 72 1014.8
20260904190501 75 265 2.0 2.0 0.00 0.53 0.53 72 1014.5
20260904185952 75 220 3.0 5.0 0.00 0.53 0.53 70 1014.6
20260904185448 74 258 3.0 3.0 0.00 0.53 0.53 72 1014.7
20260904184943 74 19 1.0 1.0 0.00 0.53 0.53 74 1014.8
20260904184443 74 149 3.0 3.0 0.00 0.53 0.53 74 1015.0
20260904183938 74 234 2.0 2.0 0.00 0.53 0.53 75 1014.5
20260904183433 74 193 3.0 3.0 0.00 0.53 0.53 73 1015.1
20260904182929 74 218 1.0 2.0 0.00 0.53 0.53 77 1015.0
20260904182424 74 272 3.0 3.0 0.00 0.53 0.53 74 1015.2
20260904181919 73 3 2.0 3.0 0.00 0.53 0.53 75 1015.1
20260904181414 74 306 1.0 1.0 0.00 0.53 0.53 76 1015.5
20260904180909 75 96 1.0 1.0 0.00 0.53 0.53 74 1015.6
20260904180404 74 210 2.0 3.0 0.00 0.53 0.53 75 1015.2
20260904175903 74 240 3.0 5.0 0.00 0.53 0.53 70 1015.3
20260904175402 73 276 3.0 3.0 0.00 0.53 0.53 72 1015.5